• In Kazakhstan
  • List of Countries
  • For 7 days
  • Water Temperature
  • Weather Map
  • News
  • Weather Widgets
  • user-avatar
    Login

    Hourly Weather Jonkoping

    Today, 14 October, Monday

    Time Temperature Precipitation Wind Pressure Humidity
    00:00 +10°C° 3 mm 4 mps 743 mmHg 94%
    01:00 +9°C° 0 mm 5 mps 742 mmHg 96%
    02:00 +10°C° 0.5 mm 5 mps 741 mmHg 94%
    03:00 +12°C° 0.5 mm 5 mps 740 mmHg 91%
    04:00 +13°C° 0.5 mm 6 mps 739 mmHg 89%
    05:00 +13°C° 0.1 mm 6 mps 739 mmHg 88%
    06:00 +12°C° 0.1 mm 5 mps 739 mmHg 87%
    07:00 +12°C° 0.1 mm 5 mps 739 mmHg 86%
    08:00 +12°C° 0.1 mm 5 mps 740 mmHg 88%
    09:00 +12°C° 0.1 mm 5 mps 741 mmHg 89%
    10:00 +12°C° 0.1 mm 5 mps 742 mmHg 91%
    11:00 +10°C° 0 mm 5 mps 744 mmHg 90%
    12:00 +9°C° 0 mm 5 mps 746 mmHg 88%
    13:00 +9°C° 0 mm 5 mps 747 mmHg 87%
    14:00 +10°C° 0 mm 4 mps 748 mmHg 86%
    15:00 +10°C° 0 mm 3 mps 749 mmHg 85%
    16:00 +9°C° 0 mm 3 mps 750 mmHg 84%
    17:00 +9°C° 0 mm 2 mps 751 mmHg 87%
    18:00 +9°C° 0 mm 1 mps 752 mmHg 89%
    19:00 +8°C° 0 mm 0 mps 752 mmHg 92%
    20:00 +9°C° 0 mm 1 mps 753 mmHg 92%
    21:00 +9°C° 0 mm 1 mps 753 mmHg 92%
    22:00 +9°C° 0 mm 1 mps 753 mmHg 91%
    23:00 +9°C° 0 mm 1 mps 753 mmHg 92%

    Tomorrow, 15 October, Tuesday

    Time Temperature Precipitation Wind Pressure Humidity
    00:00 +8°C° 0 mm 1 mps 754 mmHg 93%
    01:00 +7°C° 0 mm 2 mps 754 mmHg 93%
    02:00 +7°C° 0 mm 2 mps 753 mmHg 93%
    03:00 +7°C° 0 mm 3 mps 753 mmHg 93%
    04:00 +7°C° 0 mm 3 mps 753 mmHg 93%
    05:00 +7°C° 0.2 mm 4 mps 753 mmHg 92%
    06:00 +7°C° 0.2 mm 4 mps 752 mmHg 91%
    07:00 +7°C° 0.2 mm 4 mps 752 mmHg 90%
    08:00 +7°C° 0 mm 4 mps 752 mmHg 89%
    09:00 +7°C° 0 mm 4 mps 751 mmHg 88%
    10:00 +8°C° 0 mm 4 mps 751 mmHg 87%
    11:00 +8°C° 0.1 mm 4 mps 751 mmHg 86%
    12:00 +10°C° 0.1 mm 4 mps 750 mmHg 85%
    13:00 +10°C° 0.1 mm 4 mps 750 mmHg 84%
    14:00 +10°C° 0 mm 4 mps 750 mmHg 84%
    15:00 +11°C° 0 mm 4 mps 749 mmHg 85%
    16:00 +11°C° 0 mm 4 mps 749 mmHg 85%
    17:00 +10°C° 0 mm 4 mps 748 mmHg 88%
    18:00 +10°C° 0 mm 4 mps 748 mmHg 90%
    19:00 +8°C° 0 mm 4 mps 748 mmHg 92%
    20:00 +10°C° 0 mm 4 mps 748 mmHg 93%
    21:00 +10°C° 0 mm 3 mps 748 mmHg 93%
    22:00 +10°C° 0 mm 3 mps 747 mmHg 94%
    23:00 +10°C° 0 mm 3 mps 747 mmHg 94%

    Day after tomorrow, 16 October, Wednesday

    Time Temperature Precipitation Wind Pressure Humidity
    00:00 +10°C° 0 mm 3 mps 747 mmHg 95%
    01:00 +10°C° 0 mm 2 mps 747 mmHg 96%
    02:00 +10°C° 0 mm 2 mps 746 mmHg 96%
    03:00 +11°C° 0 mm 3 mps 746 mmHg 96%
    04:00 +11°C° 0 mm 3 mps 746 mmHg 96%
    05:00 +11°C° 0 mm 3 mps 745 mmHg 96%
    06:00 +11°C° 0 mm 3 mps 745 mmHg 95%
    07:00 +11°C° 0 mm 3 mps 745 mmHg 95%
    08:00 +11°C° 0 mm 3 mps 744 mmHg 94%
    09:00 +12°C° 0 mm 3 mps 744 mmHg 93%
    10:00 +12°C° 0 mm 4 mps 744 mmHg 91%
    11:00 +12°C° 0 mm 4 mps 743 mmHg 91%
    12:00 +12°C° 0 mm 4 mps 743 mmHg 91%
    13:00 +12°C° 0 mm 4 mps 743 mmHg 91%
    14:00 +12°C° 0.2 mm 4 mps 742 mmHg 92%
    15:00 +12°C° 0.2 mm 4 mps 742 mmHg 93%
    16:00 +12°C° 0.2 mm 4 mps 742 mmHg 94%
    17:00 +11°C° 0.4 mm 4 mps 742 mmHg 94%
    18:00 +11°C° 0.4 mm 4 mps 742 mmHg 94%
    19:00 +11°C° 0.4 mm 4 mps 742 mmHg 95%
    20:00 +10°C° 0.3 mm 5 mps 742 mmHg 95%
    21:00 +9°C° 0.3 mm 5 mps 742 mmHg 94%
    22:00 +9°C° 0.3 mm 5 mps 743 mmHg 94%
    23:00 +9°C° 0.1 mm 5 mps 743 mmHg 94%

    17 October, Thursday

    Time Temperature Precipitation Wind Pressure Humidity
    00:00 +8°C° 0.1 mm 4 mps 744 mmHg 93%
    01:00 +8°C° 0.1 mm 4 mps 744 mmHg 93%
    02:00 +8°C° 0 mm 4 mps 745 mmHg 93%
    03:00 +8°C° 0 mm 4 mps 745 mmHg 93%
    04:00 +9°C° 0 mm 3 mps 746 mmHg 93%
    05:00 +9°C° 0 mm 3 mps 746 mmHg 94%
    06:00 +9°C° 0 mm 2 mps 747 mmHg 94%
    07:00 +9°C° 0 mm 2 mps 747 mmHg 94%
    08:00 +9°C° 0 mm 2 mps 748 mmHg 93%
    09:00 +9°C° 0 mm 2 mps 748 mmHg 93%
    10:00 +9°C° 0 mm 2 mps 749 mmHg 92%
    11:00 +10°C° 0 mm 2 mps 749 mmHg 91%
    12:00 +10°C° 0 mm 2 mps 749 mmHg 90%
    13:00 +10°C° 0 mm 2 mps 750 mmHg 89%
    14:00 +10°C° 0 mm 2 mps 750 mmHg 90%
    15:00 +10°C° 0 mm 2 mps 750 mmHg 91%
    16:00 +10°C° 0 mm 2 mps 750 mmHg 92%
    17:00 +10°C° 0 mm 2 mps 750 mmHg 93%
    18:00 +10°C° 0 mm 2 mps 750 mmHg 94%
    19:00 +10°C° 0 mm 2 mps 751 mmHg 96%
    20:00 +10°C° 0 mm 2 mps 751 mmHg 96%
    21:00 +10°C° 0 mm 2 mps 751 mmHg 97%
    22:00 +10°C° 0 mm 2 mps 751 mmHg 98%
    23:00 +11°C° 0.2 mm 1 mps 751 mmHg 98%

    18 October, Friday

    Time Temperature Precipitation Wind Pressure Humidity
    00:00 +11°C° 0.2 mm 1 mps 751 mmHg 98%
    01:00 +11°C° 0.2 mm 1 mps 751 mmHg 98%
    02:00 +11°C° 0.4 mm 1 mps 751 mmHg 98%
    03:00 +11°C° 0.4 mm 1 mps 751 mmHg 98%
    04:00 +11°C° 0.4 mm 1 mps 751 mmHg 98%
    05:00 +11°C° 0.1 mm 1 mps 752 mmHg 98%
    06:00 +11°C° 0.1 mm 1 mps 752 mmHg 97%
    07:00 +10°C° 0.1 mm 2 mps 752 mmHg 96%
    08:00 +10°C° 0 mm 2 mps 752 mmHg 92%
    09:00 +12°C° 0 mm 2 mps 752 mmHg 88%
    10:00 +12°C° 0 mm 2 mps 752 mmHg 84%
    11:00 +12°C° 0 mm 2 mps 752 mmHg 79%
    12:00 +13°C° 0 mm 2 mps 752 mmHg 73%
    13:00 +13°C° 0 mm 1 mps 752 mmHg 68%
    14:00 +13°C° 0 mm 1 mps 752 mmHg 71%
    15:00 +12°C° 0 mm 1 mps 752 mmHg 74%
    16:00 +12°C° 0 mm 1 mps 752 mmHg 77%
    17:00 +11°C° 0 mm 1 mps 752 mmHg 80%
    18:00 +11°C° 0 mm 1 mps 752 mmHg 84%
    19:00 +10°C° 0 mm 1 mps 752 mmHg 88%
    20:00 +10°C° 0 mm 1 mps 752 mmHg 90%
    21:00 +10°C° 0 mm 1 mps 752 mmHg 93%
    22:00 +10°C° 0 mm 1 mps 752 mmHg 95%
    23:00 +10°C° 0 mm 1 mps 752 mmHg 96%

    19 October, Saturday

    Time Temperature Precipitation Wind Pressure Humidity
    00:00 +10°C° 0 mm 1 mps 752 mmHg 97%
    01:00 +10°C° 0 mm 1 mps 752 mmHg 97%
    02:00 +10°C° 0.6 mm 1 mps 752 mmHg 98%
    03:00 +11°C° 0.6 mm 1 mps 751 mmHg 98%
    04:00 +10°C° 0.6 mm 2 mps 751 mmHg 98%
    05:00 +10°C° 0.6 mm 2 mps 751 mmHg 98%
    06:00 +10°C° 0.6 mm 2 mps 751 mmHg 98%
    07:00 +12°C° 0.6 mm 2 mps 751 mmHg 98%
    08:00 +12°C° 0 mm 2 mps 751 mmHg 95%
    09:00 +13°C° 0 mm 2 mps 750 mmHg 92%
    10:00 +13°C° 0 mm 2 mps 750 mmHg 89%
    11:00 +13°C° 0.1 mm 2 mps 750 mmHg 90%
    12:00 +13°C° 0.1 mm 2 mps 750 mmHg 91%
    13:00 +13°C° 0.1 mm 2 mps 750 mmHg 92%
    14:00 +13°C° 0.5 mm 2 mps 750 mmHg 92%
    15:00 +12°C° 0.5 mm 3 mps 750 mmHg 92%
    16:00 +12°C° 0.5 mm 3 mps 749 mmHg 92%
    17:00 +13°C° 0.8 mm 2 mps 749 mmHg 93%
    18:00 +12°C° 0.8 mm 2 mps 749 mmHg 95%
    19:00 +12°C° 0.8 mm 1 mps 749 mmHg 96%
    20:00 +12°C° 0.8 mm 1 mps 749 mmHg 96%
    21:00 +12°C° 0.8 mm 1 mps 749 mmHg 96%
    22:00 +12°C° 0.8 mm 1 mps 749 mmHg 96%
    23:00 +12°C° 0.1 mm 1 mps 749 mmHg 97%
    Show more